sat.trackr.live / text

‹ back to catalog

CAS500-2 RIDESHARE OBJE*

NORAD 69009 · 2026-100AF

PAYLOAD ACTIVE UNKNOWN

§ Identity

Operator
Country
TBD
Launch date
2026-05-03
Launch site
AFWTR
Launch vehicle
Mass (kg)
RCS (m²)

External: N2YO · Heavens-Above · Gunter

§ Orbital elements

Epoch: 2026-05-24T23:59:15.906624Z

Period
94.76 min
Inclination
97.4065°
Eccentricity
0.0006768
Mean motion
15.19634889 rev/d
Perigee alt
502.3 km
Apogee alt
511.6 km
Semi-major
6,885.1 km
B*
5.0983e-4
RAAN
43.2141°
Arg perigee
71.1532°
Mean anomaly
289.0437°
Rev number
328

§ Raw data

CAS500-2 RIDESHARE OBJE*1 69009U 26100AF  26144.99948966  .00010812  00000+0  50983-3 0  99992 69009  97.4065  43.2141 0006768  71.1532 289.0437 15.19634889  3288

JSON: /api/v1/satellites/69009 · /tle

For live sub-satellite position, see the globe view (requires WebGL).

§ Visibility from observer

Set your observer location to see the next 7 days of passes ≥ 10°. The values pass through the URL so the page stays shareable.

No JS? Fill the form by hand. The geolocation button needs JavaScript.